Hourly Weather Roundup
Issued by NWS Central Illinois

Home | Current Version | Previous Version | Text Only | Print | Product List | Glossary On
Versions: 1 2 3 4 5 6 7 8 9 10 11 12 13 14 15 16 17 18 19 20 21 22 23 24 25 26 27 28 29 30 31 32 33 34 35 36 37 38 39 40 41 42 43 44 45 46 47 48 49 50
000
NZUS43 KILX 291010
HWRILX

AREA WEATHER ROUNDUP
NATIONAL WEATHER SERVICE, LINCOLN IL
500 AM CDT TUE JUL 29 2014


CITY           SKY/WX    TMP DP  RH WIND       PRES   REMARKS
BLOOMINGTON    CLEAR     57  50  78 W9        30.10S
CHAMPAIGN      PTCLDY    53  52  96 W6        30.09R
DECATUR        CLEAR     60  52  74 NW7       30.10R
FLORA          CLEAR     55  52  88 NW6       30.10S
GALESBURG      CLEAR     53  53  99 W3        30.12R
JACKSONVILLE   CLEAR     54  52  95 SW5       30.14R
LACON          CLEAR     55  50  83 CALM      30.08S
LAWRENCEVILLE  PTCLDY    54  51  90 NW6       30.10R
LITCHFIELD     CLEAR     51  50  96 NW5       30.13R
$$


CITY           SKY/WX    TMP DP  RH WIND       PRES   REMARKS
LINCOLN        CLEAR     57  53  85 CALM      30.09S
MACOMB         CLEAR     52  52 100 W5        30.14R
MATTOON        CLEAR     55  51  86 W8        30.09R
MT CARMEL AP   CLEAR     54  52  94 W3        30.09S
OLNEY-NOBLE AP NOT AVBL
PARIS          CLOUDY    55  53  94 CALM      30.08S
PEORIA         CLEAR     59  52  77 CALM      30.10S
PONTIAC        PTCLDY    55  55 100 CALM      30.07S
RANTOUL        MOCLDY    56  52  85 W8        30.08S
ROBINSON       MOCLDY    53  52  97 CALM      30.10R
SPRINGFIELD    CLEAR     53  50  89 SW5       30.12R
TAYLORVILLE    CLEAR     50  50 100 CALM      30.11S
$$

...REGIONAL REPORTS...


CITY           SKY/WX    TMP DP  RH WIND       PRES   REMARKS
CHICAGO O`HARE CLEAR     60  51  72 W5        30.03S
KANKAKEE       CLEAR     54  52  94 W6        30.06S
MOLINE         CLEAR     53  50  89 SW3       30.10S
MOUNT VERNON   CLEAR     52  48  87 CALM      30.12R
PITTSFIELD     CLEAR     56  52  88 W5        30.14S
QUINCY         CLEAR     57  55  93 W3        30.14R
ROCKFORD       PTCLDY    56  51  84 CALM      30.07F
$$


CITY           SKY/WX    TMP DP  RH WIND       PRES   REMARKS
BURLINGTON     PTCLDY    57  56  96 NW5       30.12S
CEDAR RAPIDS   CLEAR     52  50  93 NW8       30.12R
DES MOINES     CLEAR     59  55  87 NW7       30.16R
KIRKSVILLE     CLEAR     54  52  93 W3        30.16S
OTTUMWA        CLEAR     56  54  93 NW7       30.14S
ST LOUIS       CLEAR     60  55  83 CALM      30.14R
$$


CITY           SKY/WX    TMP DP  RH WIND       PRES   REMARKS
TERRE HAUTE    CLOUDY    56  51  84 SW3       30.08S
EVANSVILLE     CLEAR     58  50  75 NW7       30.09R
INDIANAPOLIS   CLOUDY    55  49  80 W5        30.05R
LAFAYETTE      PTCLDY    52  51  97 CALM      30.05S
MADISON        PTCLDY    59  52  77 CALM      30.05R
MILWAUKEE      CLOUDY    63  53  70 W8        30.01S
$$





USA.gov is the U.S. government's official web portal to all federal, state and local government web resources and services.